www.pogodaiklimat.ru

Погода и климат >> Архив погоды >> Украина >> Чернобыль


ПОГОДА в Чернобыле

  • Прогноз погоды в Чернобыле
  • Монитор погоды в Чернобыле

АРХИВ ПОГОДЫ в Чернобыле

Время (UTC), дата Ветер
(напр.,м/с)
 
Видим.   Явления Облачность Т
(С)
Тd
(С)
f
(%)
Тe
(С)
Тes
(С)
Комфортность P
(гПа)
Po
(гПа)
Тmin
(С)
Tmax
(С)
R
(мм)
R24
(мм)
S
(см)
15 9.06 З 1 4000 м слаб. ливневой дождь {гроза} 9/5 600 м
[Cb cap Ac und Ci fib]
+20.8 +19.3 91 +26 +26 душно 1021.0 1006.1
18 9.06 ЮЗ 1 4000 м дымка {гроза, ливн. осадки} 8/3 600 м
[Cb calv Ci fib]
+19.3 +18.6 96 +23 +23 комфорт 1022.0 1007.0 +31.1 2
21 9.06 С 1 4000 м дымка 4/0
[Ci fib]
+18.2 +17.6 96 +20 +20 1022.0 1007.0
00 10.06 СВ 1 4000 м дымка 3/0
[Ci fib]
+17.5 +16.9 96 +19 +19 1022.0 1006.9
03 10.06 СВ 1 4000 м дымка 6/0
[Ci fib]
+17.2 +16.6 96 +18 +18 1022.0 1006.9
06 10.06 СЗ 1 10 км 3/0
[Ci fib]
+23.7 +17.9 70 +28 +34 душно 1022.0 1007.3 +16.3
09 10.06 СВ 2 10 км 1/0
[Ci fib]
+29.0 +16.2 46 +32 +49 душно 1021.0 1006.5
12 10.06 Ю 2 10 км 3/3 600 м
[Cu med, cong]
+31.0 +15.4 39 +33 +44 душно 1020.0 1005.6
15 10.06 ЮВ 1 10 км 4/4 600 м
[Cu med, cong]
+30.8 +15.6 40 +33 +37 душно 1019.0 1004.6
18 10.06 В 1 10 км 3/3 1000 м
[Sc diur, vesp]
+23.7 +17.4 68 +28 +28 душно 1019.0 1004.3 +31.0
21 10.06 штиль 0 10 км ясно +19.2 +17.2 88 +21 +21 комфорт 1020.0 1005.1
00 11.06 СВ 1 4000 м дымка ясно +17.9 +16.6 92 +19 +19 1020.0 1005.0
03 11.06 СВ 1 4000 м дымка ясно +17.6 +16.6 94 +19 +19 1020.0 1005.0
06 11.06 Ю 1 10 км ясно +25.3 +17.7 63 +30 +39 душно 1020.0 1005.4 +16.9
09 11.06 ЮВ 1 10 км 1/1 1000 м
[Cu hum]
+29.8 +16.9 46 +33 +53 опасность
солнечного
удара
1020.0 1005.6
12 11.06 Ю 2 10 км 3/3 600 м
[Cu med, cong]
+32.0 +16.3 39 +35 +45 очень
душно
1018.0 1003.7
15 11.06 ЮВ 1 10 км 1/1 600 м
[Cu med, cong]
+31.1 +16.7 42 +34 +40 душно 1018.0 1003.7
18 11.06 штиль 0 10 км ясно +24.7 +17.9 66 +29 +29 душно 1018.0 1003.4 +32.0
21 11.06 СВ 1 10 км ясно +20.3 +16.5 79 +24 +24 комфорт 1018.0 1003.1
00 12.06 СВ 1 10 км ясно +18.4 +16.4 88 +20 +20 1018.0 1003.0
03 12.06 СВ 1 4000 м дымка ясно +16.8 +15.8 94 +18 +18 1018.0 1003.0
06 12.06 СВ 1 10 км ясно +26.4 +18.3 61 +31 +40 душно 1018.0 1003.4 +16.5
09 12.06 В 2 10 км 3/3 1000 м
[Cu med, cong]
+30.2 +16.9 45 +34 +45 очень
душно
1017.0 1002.6
12 12.06 ЮВ 2 10 км 4/4 1000 м
[Cu med, cong]
+31.7 +15.2 37 +34 +44 душно 1016.0 1001.7
15 12.06 ЮВ 1 10 км ясно +31.0 +14.2 36 +33 +38 душно 1015.0 1000.7
18 12.06 штиль 0 10 км ясно +24.2 +16.7 63 +28 +28 душно 1015.0 1000.4 +32.3
21 12.06 штиль 0 10 км ясно +19.9 +18.0 89 +23 +23 комфорт 1017.0 1002.1
00 13.06 штиль 0 4000 м дымка ясно +17.8 +16.3 91 +18 +18 1016.9 1002.0
03 13.06 штиль 0 4000 м дымка 8/0
[Ci fib]
+17.0 +15.3 90 +17 +17 1018.0 1003.0
06 13.06 В 1 10 км 3/0
[Ci fib]
+27.4 +18.4 58 +32 +39 очень
душно
1018.0 1003.5 +15.9
09 13.06 ЮВ 1 10 км 8/3 1000 м
[Cu med, cong Ci fib]
+30.4 +16.4 43 +34 +34 очень
душно
1018.0 1003.6
12 13.06 ЮВ 2 10 км 6/6 600 м
[Cu med, cong]
+32.6 +16.0 37 +35 +41 душно 1017.0 1002.7
15 13.06 В 1 10 км гроза без осадков 6 баллов +30.7 +17.0 44 +34 +37 очень
душно
1018.0 1003.6
18 13.06 штиль 0 10 км {гроза} 8/0
[Ci fib]
+26.2 +19.3 66 +32 +32 очень
душно
1018.0 1003.4 +32.8
21 13.06 В 1 10 км ясно +23.2 +19.6 80 +30 +30 очень
душно
1019.0 1004.3
00 14.06 В 1 10 км ясно +20.8 +18.9 89 +26 +26 душно 1020.0 1005.1
03 14.06 В 1 10 км 8/0
[Ci fib]
+20.4 +18.5 89 +25 +25 комфорт 1020.0 1005.1
06 14.06 штиль 0 10 км 9/0
[Ci fib]
+24.2 +18.8 72 +29 +29 душно 1020.0 1005.3 +19.3
09 14.06 В 1 10 км 8/3 600 м
[Cu med, cong Ci fib]
+28.9 +19.5 57 +35 +35 очень
душно
1019.0 1004.6
12 14.06 В 1 10 км 8/5 600 м
[Cu med, cong Ci fib]
+31.9 +18.8 46 +37 +37 очень
душно
1018.0 1003.7
15 14.06 штиль 0 10 км гроза без осадков {ливн. осадки} 10/8 600 м
[Cb calv Ci fib]
+25.0 +20.7 77 +31 +31 очень
душно
1017.0 1002.4
18 14.06 штиль 0 10 км {гроза} 9/0
[Ci fib]
+22.8 +21.1 90 +30 +30 очень
душно
1017.0 1002.3 +32.3 0.7
21 14.06 В 1 4000 м дымка 8/0
[Cc]
+20.2 +19.4 95 +25 +25 комфорт 1018.0 1003.1
00 15.06 штиль 0 4000 м дымка 6/0
[Ci fib]
+19.2 +18.2 94 +21 +21 комфорт 1017.0 1002.1
03 15.06 С 1 10 км ясно +19.8 +17.9 89 +24 +24 комфорт 1017.0 1002.1
06 15.06 С 1 10 км ясно +24.7 +18.6 69 +29 +39 душно 1017.0 1002.4 +18.1
09 15.06 СВ 2 10 км ясно +29.8 +17.6 48 +34 +51 опасность
солнечного
удара
1016.0 1001.6
12 15.06 С 1 10 км 3/3 1000 м
[Cu med, cong]
+31.9 +12.6 31 +33 +45 жарко 1015.0 1000.7
15 15.06 СЗ 1 10 км 3/3 1000 м
[Cu med, cong]
+30.6 +15.0 39 +33 +37 душно 1014.0 999.7
18 15.06 штиль 0 10 км ясно +24.6 +16.6 61 +28 +28 душно 1014.0 999.4 +32.4
21 15.06 С 1 10 км ясно +21.3 +15.8 71 +25 +25 комфорт 1014.0 999.2
00 16.06 С 1 10 км 8/0
[Ac trans]
+19.9 +13.4 66 +23 +23 комфорт 1015.0 1000.1
03 16.06 С 1 10 км 8/0
[Ac trans]
+19.0 +14.5 75 +21 +21 комфорт 1014.0 999.1
06 16.06 С 1 10 км 6/0
[Ac trans]
+22.8 +15.9 65 +27 +31 душно 1015.0 1000.3 +17.8
09 16.06 СЗ 1 10 км 10/0
[Ci fib]
+28.0 +13.5 41 +30 +30 жарко 1014.0 999.6
12 16.06 С 1 10 км 9/0
[Ci fib]
+30.1 +13.8 37 +32 +32 жарко 1014.0 999.7

 

Местоположение метеостанции Чернобыль (Киевская область, Украина): широта 51.28 долгота 30.23 высота над уровнем моря 127 м.

В архиве по умолчанию представлена погода в Чернобыле за последнюю неделю. Архивные данные за месяц целиком и за предыдущие месяцы, начиная с января 2011 года, Вы можете получить, выбрав интересующий диапазон дат из раскрывающегося списка и нажав кнопку "Ввод!".


*Определитесь, кто Вы:
робот инопланетянин человек

Внимание! Время в таблицах - всемирное. Для получения местного времени необходимо прибавить поправку, которая равна 2 ч.

Смотрите также архив погоды в соседних городах и на ближайших метеорологических станциях:

Погода в Брагине (Гомельская область, Беларусь) (57 км)
Погода в Остере (Черниговская область, Украина) (58 км)
Погода в Чернигове (Черниговская область, Украина) (74 км)
Погода в Тетереве (Киевская область, Украина) (79 км)
Погода в Вышгороде (Киевская область, Украина) (80 км)
Погода в Киеве (город Киев, Украина) (101 км)
Погода в Овруче (Житомирская область, Украина) (101 км)
Погода в Мозыре (Гомельская область, Беларусь) (111 км)
Погода в Василевичах (Гомельская область, Беларусь) (111 км)
Погода в Коростени (Житомирская область, Украина) (116 км)

Пояснения к столбцам:

Ветер - указаны скорость ветра в м/с - средняя за 10 мин, порывы в срок и между сроками (в фигурных скобках) и направление, откуда дует ветер: С - северный, СВ - северо-восточный, В - восточный, ЮВ - юго-восточный, Ю - южный, ЮЗ - юго-западный, З - западный, СЗ - северо-западный.
Видимость - горизонтальная дальность видимости в метрах или километрах. При видимости от 1 до 10 км при отсутствии осадков обычно наблюдается дымка, при ухудшении видимости до 1 км и менее - туман. В сухую погоду видимость может ухудшаться дымом, пылью или мглою.
Явления - указаны атмосферные явления, наблюдавшиеся в срок или в последний час перед сроком; фигурными скобками обозначены явления, наблюдавшиеся между сроками (за 1-3 часа до срока); квадратными скобками обозначены град или гололедные отложения с указанием их диаметра в мм.
Облачность - указаны через наклонную черту общая и нижняя облачность в баллах и высота нижней границы облаков в метрах; квадратными скобками обозначены формы облаков: Ci - перистые, Cs - перисто-слоистые, Cc - перисто-кучевые, Ac - высококучевые, As - высокослоистые, Sc - слоисто-кучевые, Ns - слоисто-дождевые, Cu - кучевые, Cb - кучево-дождевые. Подробнее классификацию облаков см. в Атласе облаков (PDF).
T - Температура воздуха - температура, измеренная на высоте 2 м над землей.
Td - Температура точки росы - температура, при понижении до которой содержащийся в воздухе водяной пар достигнет насыщения.
f - Относительная влажность воздуха - влажноcть воздуха, измеренная на высоте 2 м над землей.
Te - Эффективная температура - температура, которую ощущает одетый по сезону человек в тени. Характеристика душности погоды. При расчете учитывается влияние влажности воздуха и скорости ветра на теплоощущения человека.
Tes - Эффективная температура на солнце - температура, которую ощущает человек, с поправкой на солнечный нагрев. Характеристика знойности погоды. Зависит от высоты солнца над горизонтом, облачности и скорости ветра. Ночью, в пасмурную погоду, а также при ветре 12 м/с и более поправка равна нулю.
P - Атмосферное давление - приведенное к уровню моря атмосферное давление.
Po - Атмосферное давление - измеренное на уровне метеостанции атмосферное давление.
Tmin - Минимальная температура - минимум температуры воздуха на высоте 2 м над землей.
Tmax - Максимальная температура - максимум температуры воздуха на высоте 2 м над землей.
R - Количество осадков - Количество выпавших осадков за период времени, мм. При наведении курсора мыши на число - период времени, за который выпало указанное количество осадков.
R24 - Количество осадков - Количество выпавших осадков за 24 часа, мм.
S - Снежный покров - Высота снежного покрова, см. При наведении курсора мыши на число - состояние снежного покрова и степень покрытия местности в баллах.